Tracking 21076 objects as of 9-Aug-2020
HD Live streaming from Space Station
objects crossing your sky now
Track the most recent launched group of Starlink satellites

EAGLESAT-1

Track EAGLESAT-1 now!
10-day predictions
EAGLESAT-1 is classified as:


NORAD ID: 43018
Int'l Code: 2017-073F
Perigee: 460.0 km
Apogee: 814.9 km
Inclination: 97.7 °
Period: 97.3 minutes
Semi major axis: 7008 km
RCS: Unknown
Launch date: November 18, 2017
Source: United States (US)
Launch site: AIR FORCE WESTERN TEST RANGE (AFWTR)

Uplink (MHz):
Downlink (MHz): 437.645
Beacon (MHz):
Mode: 1200bps AFSK
Call sign:
Status: Inactive

aabbcc
Your satellite tracking list
Your tracking list is empty




NASA's NSSDC Master Catalog

Two Line Element Set (TLE):
1 43018U 17073F   20221.70339683  .00000452  00000-0  40696-4 0  9990
2 43018  97.7188 132.3985 0253211 238.0003 119.6378 14.79699860146789
Source of the keplerian elements: AFSPC